North Conway, NH

12:12 AM EST on December 14, 2019 (GMT -0500)
North Conway

Weather History for KCWN - October, 2019

Change the Weather History Date:

Tuesday, October 22, 2019

  Actual Average (WUND) Record (WUND)
Temperature  
Mean Temperature 42 °F -  
Max Temperature 55 °F - - (-1)
Min Temperature 30 °F - - (-1)
Degree Days  
Heating Degree Days 22    
Moisture  
Dew Point 16 °F    
Average Humidity 34    
Maximum Humidity 51    
Minimum Humidity 22    
Precipitation  
Precipitation 0.00 in - - ()
Sea Level Pressure  
Sea Level Pressure 29.79 in    
Wind  
Wind Speed 4 mph (SSE)    
Max Wind Speed 14 mph    
Max Gust Speed -    
Visibility 10 miles    
Events      
Averages and records for this station are not official NWS values.
T = Trace of Precipitation, MM = Missing Value Source: NWS Daily Summary

Daily Weather History Graph

Daily Weather History Graph

Search for Another Location

Airport or City:

Astronomy

Oct. 22, 2019 Rise Set
Actual Time 7:07 AM EDT 5:49 PM EDT
Civil Twilight 6:38 AM EDT 6:19 PM EDT
Nautical Twilight 6:04 AM EDT 6:52 PM EDT
Astronomical Twilight 5:31 AM EDT 7:26 PM EDT
Moon No Moon Rise 3:13 PM EDT (10/22)
Length of Visible Light 11h 40m
Length of Day
10h 42m
Last Quarter, 37% of the Moon is Illuminated
Oct 22
Last Quarter
Oct 27
New
Nov 4
First Quarter
Nov 12
Full
Nov 19
Last Quarter

Hourly Weather History & Observations

Time (EDT) Temp. Windchill Dew Point Humidity Pressure Visibility Wind Dir Wind Speed Gust Speed Precip Events Conditions
12:58 AM 37.0 °F - 9.7 °F 32% 29.86 in 10.0 mi Calm Calm - N/A   Clear
1:58 AM 37.0 °F - 10.4 °F 33% 29.85 in 10.0 mi Calm Calm - N/A   Clear
2:58 AM 36.0 °F 33.3 °F 10.4 °F 35% 29.85 in 10.0 mi SSW 3.5 mph - N/A   Clear
3:58 AM 33.8 °F - 11.7 °F 40% 29.86 in 10.0 mi Calm Calm - N/A   Clear
5:58 AM 31.6 °F 25.1 °F 12.2 °F 45% 29.86 in 10.0 mi SSE 6.9 mph - N/A   Clear
6:58 AM 32.2 °F 24.4 °F 14.9 °F 49% 29.87 in 10.0 mi South 9.2 mph - N/A   Clear
7:58 AM 32.2 °F 25.0 °F 14.4 °F 48% 29.88 in 10.0 mi South 8.1 mph - N/A   Clear
8:58 AM 30.9 °F 23.5 °F 14.5 °F 51% 29.90 in 10.0 mi SSE 8.1 mph - N/A   Clear
9:58 AM 32.4 °F 26.0 °F 14.9 °F 49% 29.91 in 10.0 mi SSE 6.9 mph - N/A   Clear
10:58 AM 36.1 °F 31.4 °F 15.8 °F 44% 29.91 in 10.0 mi ESE 5.8 mph - N/A   Clear
11:58 AM 39.9 °F - 16.2 °F 38% 29.88 in 10.0 mi Calm Calm - N/A   Clear
12:58 PM 44.1 °F 41.5 °F 17.1 °F 34% 29.86 in 10.0 mi ESE 4.6 mph - N/A   Clear
1:59 PM 48.7 °F - 16.3 °F 28% 29.83 in 10.0 mi ESE 8.1 mph - N/A   Clear
2:58 PM 50.9 °F - 15.6 °F 25% 29.78 in 10.0 mi ESE 9.2 mph - N/A   Clear
3:58 PM 55.4 °F - 16.7 °F 22% 29.72 in 10.0 mi ESE 10.4 mph - N/A   Clear
4:59 PM 54.1 °F - 16.2 °F 22% 29.70 in 10.0 mi SSE 13.8 mph - N/A   Clear
5:00 PM 53.6 °F - 15.8 °F 22% 29.70 in 10.0 mi South 12.7 mph - N/A   Clear
5:58 PM 53.4 °F - 16.7 °F 24% 29.69 in 10.0 mi ESE 8.1 mph - N/A   Clear
6:58 PM 52.0 °F - 16.7 °F 25% 29.68 in 10.0 mi Calm Calm - N/A   Clear
7:58 PM 51.6 °F - 17.1 °F 26% 29.67 in 10.0 mi SSW 4.6 mph - N/A   Clear
8:58 PM 50.7 °F - 18.1 °F 28% 29.71 in 10.0 mi Calm Calm - N/A   Mostly Cloudy
9:58 PM 51.6 °F - 21.4 °F 31% 29.67 in 10.0 mi WNW 10.4 mph - N/A   Clear
10:58 PM 51.6 °F - 20.7 °F 30% 29.65 in 10.0 mi WSW 6.9 mph - N/A   Clear
11:58 PM 52.3 °F - 20.5 °F 29% 29.62 in 10.0 mi SE 5.8 mph - N/A   Partly Cloudy